Regional Weather Roundup
Issued by NWS

Current Version | Previous Version | Text Only | Print | Product List | Glossary On
Versions: 1 2 3 4 5 6 7 8 9 10 11 12 13 14 15 16 17 18 19 20 21 22 23 24 25 26 27 28 29 30 31 32 33 34 35 36 37 38 39 40 41 42 43 44 45 46 47 48 49 50
000
ASUS45 KREV 210110
RWRNV
NEVADA REGIONAL WEATHER ROUNDUP
NATIONAL WEATHER SERVICE RENO NV
600 PM PDT MON OCT 20 2014

NOTE: "FAIR" INDICATES FEW OR NO CLOUDS BELOW 12,000 FEET WITH NO
SIGNIFICANT WEATHER AND/OR OBSTRUCTIONS TO VISIBILITY.

NVZ001-003-004-210200-
WESTERN NEVADA

CITY           SKY/WX    TMP DP  RH WIND       PRES   REMARKS
RENO           PTCLDY    64  33  31 SW17G28   29.86S
CARSON CITY    FAIR      63  34  34 SW20G30   29.87F
MINDEN         FAIR      63  30  29 S17G24    29.90
SLIDE MTN        N/A     37  32  81 W43         N/A
PYRAMID LAKE     N/A     70 N/A N/A SW8         N/A
FALLON         MOCLDY    72  30  21 W5        29.79S
LOVELOCK       FAIR      70  33  25 W14       29.79R
HAWTHORNE      CLEAR     75  19  12 SW15      29.81F
$$

NVZ002-CAZ072-073-210200-
NORTHERN AND CENTRAL SIERRA

CITY           SKY/WX    TMP DP  RH WIND       PRES   REMARKS
S. LAKE TAHOE  PTCLDY    54  35  48 S17G31    29.97R
TRUCKEE        MOCLDY    54  34  47 S7G17     29.96F
SQUAW VLY 8000 NOT AVBL
SUSANVILLE     LGT RAIN  52  46  82 SW10      29.89R
BLUE CANYON    CLOUDY    48  45  89 S14G24    29.98F
MAMMOTH LAKES  FAIR      59  23  25 S7G25     30.02F
$$

NVZ030-031-036-210200-
NORTHERN NEVADA

CITY           SKY/WX    TMP DP  RH WIND       PRES   REMARKS
ELKO           MOCLDY    72  26  18 S12G22    29.82F
WINNEMUCCA     PTCLDY    68  26  20 SW9       29.79F
WENDOVER       CLOUDY    66  37  34 CALM      29.88F
$$

NVZ035-037-210200-
CENTRAL NEVADA

CITY           SKY/WX    TMP DP  RH WIND       PRES   REMARKS
ELY            PTCLDY    64  30  27 S12       29.99S
EUREKA           N/A     67  29  24 S10       29.91S
$$

NVZ013-014-210200-
SOUTH CENTRAL NEVADA

CITY           SKY/WX    TMP DP  RH WIND       PRES   REMARKS
TONOPAH        PTCLDY    69  29  22 S16       29.93S
$$

NVZ017-020-022-210200-
SOUTHERN NEVADA

CITY           SKY/WX    TMP DP  RH WIND       PRES   REMARKS
LAS VEGAS      PTCLDY    85  43  22 S9        29.78S
N. LAS VEGAS   PTCLDY    83  40  21 E8        29.81S
NELLIS AFB     PTCLDY    84  43  23 SE9       29.79F
HENDERSON      PTCLDY    83  43  24 SE12      29.84S
MERCURY        PTCLDY    79  36  21 SW14      29.86F
$$



USA.gov is the U.S. government's official web portal to all federal, state and local government web resources and services.